Wetterdaten: aktuell Montag, 17.02.2020 07:26
Datum Zeit Temp. I. Temp. 2m Temp. 5cm Temp. -10cm Feuchte I. Feuchte 2m Luftdruck Regen Wind Richtung Richtung Taupunkt Windchill Windben
17.02.2020 07:26 12,1 C 3,3 C 1,2 C 0,0 C 64 % 74 % 1018,4 hPa 0,0 l/m 0,0 km/h (0 Bft) O 90 -0,9 C 3,3 C 0,0 km/h (0 Bft)
17.02.2020 07:24 12,1 C 3,3 C 1,0 C 0,0 C 64 % 74 % 1018,4 hPa 0,0 l/m 0,0 km/h (0 Bft) O 90 -0,9 C 3,3 C 0,0 km/h (0 Bft)
17.02.2020 07:22 12,1 C 3,4 C 1,1 C 0,0 C 64 % 74 % 1018,4 hPa 0,0 l/m 0,2 km/h (0 Bft) O 90 -0,8 C 3,4 C 0,0 km/h (0 Bft)
17.02.2020 07:20 12,1 C 3,5 C 1,1 C 0,0 C 64 % 74 % 1018,4 hPa 0,0 l/m 0,5 km/h (0 Bft) O 90 -0,7 C 3,5 C 0,0 km/h (0 Bft)
17.02.2020 07:18 12,1 C 3,6 C 0,9 C 0,0 C 64 % 74 % 1018,4 hPa 0,0 l/m 0,6 km/h (0 Bft) O 90 -0,6 C 3,6 C 0,0 km/h (0 Bft)
17.02.2020 07:16 12,3 C 3,8 C 1,1 C 0,0 C 64 % 74 % 1018,4 hPa 0,0 l/m 1,1 km/h (1 Bft) O 90 -0,4 C 3,8 C 0,0 km/h (0 Bft)
17.02.2020 07:14 12,1 C 3,8 C 1,2 C 0,0 C 64 % 75 % 1018,4 hPa 0,0 l/m 2,1 km/h (1 Bft) O 90 -0,2 C 3,8 C 0,0 km/h (0 Bft)
17.02.2020 07:12 12,3 C 3,9 C 1,6 C 0,0 C 64 % 75 % 1018,4 hPa 0,0 l/m 2,6 km/h (1 Bft) O 90 -0,1 C 3,9 C 2,7 km/h (1 Bft)
17.02.2020 07:10 12,1 C 3,9 C 1,8 C 0,0 C 64 % 75 % 1018,4 hPa 0,0 l/m 2,9 km/h (1 Bft) O 90 -0,1 C 3,9 C 2,7 km/h (1 Bft)
17.02.2020 07:08 12,1 C 3,9 C 2,1 C 0,0 C 64 % 75 % 1018,4 hPa 0,0 l/m 3,2 km/h (1 Bft) O 90 -0,1 C 3,9 C 4,1 km/h (1 Bft)
17.02.2020 07:06 12,3 C 3,6 C 1,8 C 0,0 C 64 % 75 % 1018,4 hPa 0,0 l/m 3,4 km/h (1 Bft) O 90 -0,4 C 3,6 C 4,8 km/h (1 Bft)
17.02.2020 07:04 12,1 C 3,3 C 1,2 C 0,0 C 64 % 75 % 1018,4 hPa 0,0 l/m 3,2 km/h (1 Bft) O 90 -0,7 C 3,3 C 4,8 km/h (1 Bft)
17.02.2020 07:01 12,3 C 3,2 C 1,0 C 0,0 C 64 % 74 % 1018,4 hPa 0,0 l/m 2,9 km/h (1 Bft) O 90 -1,0 C 3,2 C 5,2 km/h (1 Bft)
17.02.2020 07:00 12,1 C 3,2 C 1,1 C 0,0 C 64 % 74 % 1018,4 hPa 0,0 l/m 2,7 km/h (1 Bft) O-NO 67 -1,0 C 3,2 C 4,2 km/h (1 Bft)
17.02.2020 06:58 12,3 C 3,2 C 1,2 C 0,0 C 64 % 74 % 1018,4 hPa 0,0 l/m 2,7 km/h (1 Bft) O-NO 67 -1,0 C 3,2 C 4,2 km/h (1 Bft)
17.02.2020 06:56 12,1 C 3,2 C 1,2 C 0,0 C 64 % 74 % 1018,4 hPa 0,0 l/m 2,3 km/h (1 Bft) O-NO 67 -1,0 C 3,2 C 3,9 km/h (1 Bft)
17.02.2020 06:54 12,3 C 3,2 C 1,4 C 0,0 C 64 % 74 % 1018,4 hPa 0,0 l/m 1,9 km/h (1 Bft) O-NO 67 -1,0 C 3,2 C 2,9 km/h (1 Bft)
17.02.2020 06:52 12,3 C 3,1 C 1,3 C 0,0 C 64 % 74 % 1018,4 hPa 0,0 l/m 1,4 km/h (1 Bft) O-NO 67 -1,1 C 3,1 C 3,5 km/h (1 Bft)
17.02.2020 06:50 12,3 C 2,8 C 0,9 C 0,0 C 64 % 76 % 1018,4 hPa 0,0 l/m 1,0 km/h (0 Bft) O-NO 67 -1,0 C 2,8 C 3,5 km/h (1 Bft)
17.02.2020 06:48 12,3 C 2,7 C 0,7 C 0,0 C 64 % 75 % 1018,2 hPa 0,0 l/m 0,6 km/h (0 Bft) O-NO 67 -1,3 C 2,7 C 2,7 km/h (1 Bft)
17.02.2020 06:46 12,3 C 2,7 C 0,4 C 0,0 C 64 % 75 % 1018,2 hPa 0,0 l/m 0,8 km/h (0 Bft) O-NO 67 -1,3 C 2,7 C 2,7 km/h (1 Bft)
17.02.2020 06:44 12,3 C 2,6 C 0,5 C 0,0 C 64 % 75 % 1018,2 hPa 0,0 l/m 0,8 km/h (0 Bft) O-NO 67 -1,4 C 2,6 C 0,0 km/h (0 Bft)
17.02.2020 06:42 12,3 C 2,7 C 0,8 C 0,0 C 64 % 75 % 1018,2 hPa 0,0 l/m 0,8 km/h (0 Bft) O-NO 67 -1,3 C 2,7 C 2,3 km/h (1 Bft)
17.02.2020 06:40 12,3 C 2,7 C 0,9 C 0,0 C 64 % 75 % 1018,2 hPa 0,0 l/m 0,8 km/h (0 Bft) O-NO 67 -1,3 C 2,7 C 2,3 km/h (1 Bft)
17.02.2020 06:38 12,3 C 2,7 C 1,0 C 0,0 C 64 % 75 % 1018,2 hPa 0,0 l/m 0,6 km/h (0 Bft) O-NO 67 -1,3 C 2,7 C 4,1 km/h (1 Bft)
17.02.2020 06:36 12,3 C 2,7 C 0,8 C 0,0 C 64 % 75 % 1018,2 hPa 0,0 l/m 0,6 km/h (0 Bft) O-NO 67 -1,3 C 2,7 C 4,1 km/h (1 Bft)
17.02.2020 06:34 12,3 C 2,7 C 0,5 C 0,0 C 64 % 75 % 1018,2 hPa 0,0 l/m 0,0 km/h (0 Bft) W-NW 292 -1,3 C 2,7 C 0,0 km/h (0 Bft)
17.02.2020 06:32 12,3 C 2,7 C 0,3 C 0,0 C 64 % 75 % 1018,2 hPa 0,0 l/m 0,0 km/h (0 Bft) W-NW 292 -1,3 C 2,7 C 2,1 km/h (1 Bft)
17.02.2020 06:30 12,2 C 2,7 C 0,4 C 0,0 C 64 % 74 % 1018,2 hPa 0,0 l/m 0,0 km/h (0 Bft) W-NW 292 -1,5 C 2,7 C 2,1 km/h (1 Bft)
17.02.2020 06:28 12,2 C 2,7 C 0,5 C 0,0 C 64 % 73 % 1018,6 hPa 0,0 l/m 0,0 km/h (0 Bft) W-NW 292 -1,6 C 2,7 C 0,0 km/h (0 Bft)
17.02.2020 06:26 12,3 C 2,7 C 0,8 C 0,0 C 64 % 73 % 1018,6 hPa 0,0 l/m 0,0 km/h (0 Bft) W-NW 292 -1,6 C 2,7 C 0,0 km/h (0 Bft)
17.02.2020 06:24 12,2 C 2,8 C 0,8 C 0,0 C 64 % 73 % 1018,6 hPa 0,0 l/m 0,2 km/h (0 Bft) W-NW 292 -1,5 C 2,8 C 0,0 km/h (0 Bft)
17.02.2020 06:22 12,2 C 2,8 C 0,8 C 0,0 C 64 % 73 % 1018,6 hPa 0,0 l/m 0,2 km/h (0 Bft) W-NW 292 -1,5 C 2,8 C 0,0 km/h (0 Bft)
17.02.2020 06:20 12,3 C 2,7 C 0,7 C 0,0 C 64 % 73 % 1018,6 hPa 0,0 l/m 0,5 km/h (0 Bft) W-NW 292 -1,6 C 2,7 C 0,0 km/h (0 Bft)
17.02.2020 06:18 12,2 C 2,7 C 0,7 C 0,0 C 64 % 73 % 1018,6 hPa 0,0 l/m 0,6 km/h (0 Bft) W-NW 292 -1,6 C 2,7 C 0,0 km/h (0 Bft)
17.02.2020 06:16 12,2 C 2,6 C 0,5 C 0,0 C 64 % 73 % 1018,6 hPa 0,0 l/m 0,8 km/h (0 Bft) W-NW 292 -1,7 C 2,6 C 2,5 km/h (1 Bft)
17.02.2020 06:14 12,2 C 2,6 C 0,3 C 0,0 C 64 % 73 % 1018,6 hPa 0,0 l/m 1,1 km/h (1 Bft) W-NW 292 -1,7 C 2,6 C 2,5 km/h (1 Bft)
17.02.2020 06:12 12,2 C 2,6 C 0,2 C 0,0 C 64 % 72 % 1018,6 hPa 0,0 l/m 1,1 km/h (1 Bft) O-SO 112 -1,9 C 2,6 C 2,5 km/h (1 Bft)
17.02.2020 06:10 12,2 C 2,7 C 0,3 C 0,0 C 64 % 72 % 1018,6 hPa 0,0 l/m 1,0 km/h (0 Bft) O-SO 112 -1,8 C 2,7 C 2,5 km/h (1 Bft)
17.02.2020 06:08 12,2 C 2,8 C 0,4 C 0,0 C 64 % 72 % 1018,4 hPa 0,0 l/m 1,0 km/h (0 Bft) O-SO 112 -1,7 C 2,8 C 2,7 km/h (1 Bft)
17.02.2020 06:06 12,3 C 2,8 C 0,4 C 0,0 C 64 % 72 % 1018,4 hPa 0,0 l/m 1,4 km/h (1 Bft) O-SO 112 -1,7 C 2,8 C 2,7 km/h (1 Bft)
17.02.2020 06:04 12,3 C 3,2 C 0,3 C 0,0 C 64 % 71 % 1018,4 hPa 0,0 l/m 1,3 km/h (1 Bft) O-SO 112 -1,5 C 3,2 C 2,7 km/h (1 Bft)
17.02.2020 06:02 12,2 C 3,2 C 0,3 C 0,0 C 64 % 71 % 1018,4 hPa 0,0 l/m 1,9 km/h (1 Bft) O-SO 112 -1,5 C 3,2 C 0,0 km/h (0 Bft)
17.02.2020 06:00 12,2 C 3,2 C 0,3 C 0,0 C 64 % 71 % 1018,4 hPa 0,0 l/m 2,1 km/h (1 Bft) O-SO 112 -1,5 C 3,2 C 2,3 km/h (1 Bft)
17.02.2020 05:58 12,3 C 3,3 C 0,5 C 0,0 C 64 % 71 % 1018,4 hPa 0,0 l/m 2,4 km/h (1 Bft) O-SO 112 -1,4 C 3,3 C 3,7 km/h (1 Bft)
17.02.2020 05:56 12,2 C 3,4 C 0,4 C 0,0 C 64 % 71 % 1018,4 hPa 0,0 l/m 2,4 km/h (1 Bft) O-SO 112 -1,3 C 3,4 C 3,7 km/h (1 Bft)
17.02.2020 05:54 12,4 C 3,5 C 0,5 C 0,0 C 64 % 71 % 1018,4 hPa 0,0 l/m 1,9 km/h (1 Bft) O-SO 112 -1,3 C 3,5 C 3,5 km/h (1 Bft)
17.02.2020 05:52 12,2 C 3,6 C 0,8 C 0,0 C 64 % 71 % 1018,4 hPa 0,0 l/m 1,6 km/h (1 Bft) O-SO 112 -1,2 C 3,6 C 3,5 km/h (1 Bft)
17.02.2020 05:50 12,4 C 3,8 C 0,8 C 0,0 C 64 % 70 % 1018,4 hPa 0,0 l/m 1,3 km/h (1 Bft) O-SO 112 -1,2 C 3,8 C 3,5 km/h (1 Bft)
17.02.2020 05:48 12,4 C 3,9 C 0,9 C 0,0 C 64 % 70 % 1018,2 hPa 0,0 l/m 1,4 km/h (1 Bft) O-SO 112 -1,1 C 3,9 C 3,3 km/h (1 Bft)
17.02.2020 05:46 12,2 C 4,0 C 0,6 C 0,0 C 64 % 70 % 1018,2 hPa 0,0 l/m 1,1 km/h (1 Bft) O 90 -1,0 C 4,0 C 3,3 km/h (1 Bft)
17.02.2020 05:44 12,2 C 4,1 C 0,6 C 0,0 C 64 % 70 % 1018,2 hPa 0,0 l/m 1,0 km/h (0 Bft) O 90 -0,9 C 4,1 C 2,1 km/h (1 Bft)
17.02.2020 05:42 12,2 C 4,2 C 0,9 C 0,0 C 64 % 70 % 1018,2 hPa 0,0 l/m 1,0 km/h (0 Bft) O 90 -0,8 C 4,2 C 2,3 km/h (1 Bft)
17.02.2020 05:40 12,4 C 4,4 C 1,2 C 0,0 C 64 % 70 % 1018,2 hPa 0,0 l/m 1,0 km/h (0 Bft) O 90 -0,6 C 4,4 C 2,3 km/h (1 Bft)
17.02.2020 05:38 12,4 C 4,4 C 1,5 C 0,0 C 64 % 70 % 1018,2 hPa 0,0 l/m 0,5 km/h (0 Bft) O 90 -0,6 C 4,4 C 2,3 km/h (1 Bft)
17.02.2020 05:36 12,4 C 4,5 C 2,0 C 0,0 C 64 % 70 % 1018,2 hPa 0,0 l/m 0,2 km/h (0 Bft) W-SW 247 -0,5 C 4,5 C 0,0 km/h (0 Bft)
17.02.2020 05:34 12,4 C 4,5 C 2,0 C 0,0 C 64 % 70 % 1018,2 hPa 0,0 l/m 0,2 km/h (0 Bft) W-SW 247 -0,5 C 4,5 C 0,0 km/h (0 Bft)
17.02.2020 05:32 12,4 C 4,4 C 1,7 C 0,0 C 64 % 70 % 1018,2 hPa 0,0 l/m 0,2 km/h (0 Bft) W-SW 247 -0,6 C 4,4 C 0,0 km/h (0 Bft)
17.02.2020 05:30 12,4 C 4,5 C 1,8 C 0,0 C 64 % 70 % 1018,2 hPa 0,0 l/m 0,0 km/h (0 Bft) W-SW 247 -0,5 C 4,5 C 0,0 km/h (0 Bft)
17.02.2020 05:28 12,4 C 4,5 C 1,8 C 0,0 C 64 % 70 % 1018,1 hPa 0,0 l/m 0,0 km/h (0 Bft) W-SW 247 -0,5 C 4,5 C 0,0 km/h (0 Bft)
17.02.2020 05:26 12,4 C 4,6 C 2,0 C 0,0 C 64 % 70 % 1018,1 hPa 0,0 l/m 0,2 km/h (0 Bft) W-SW 247 -0,4 C 4,6 C 0,0 km/h (0 Bft)
17.02.2020 05:24 12,4 C 4,6 C 2,0 C 0,0 C 64 % 70 % 1018,1 hPa 0,0 l/m 0,6 km/h (0 Bft) W-SW 247 -0,4 C 4,6 C 0,0 km/h (0 Bft)
17.02.2020 05:22 12,4 C 4,6 C 2,4 C 0,0 C 64 % 70 % 1018,1 hPa 0,0 l/m 1,1 km/h (1 Bft) W-SW 247 -0,4 C 4,6 C 0,0 km/h (0 Bft)
17.02.2020 05:20 12,4 C 4,6 C 2,7 C 0,0 C 64 % 70 % 1018,1 hPa 0,0 l/m 1,6 km/h (1 Bft) W-SW 247 -0,4 C 4,6 C 0,0 km/h (0 Bft)
17.02.2020 05:18 12,4 C 4,6 C 2,7 C 0,0 C 64 % 70 % 1018,1 hPa 0,0 l/m 1,8 km/h (1 Bft) W-SW 247 -0,4 C 4,6 C 2,3 km/h (1 Bft)
17.02.2020 05:16 12,4 C 4,7 C 2,8 C 0,0 C 64 % 70 % 1018,1 hPa 0,0 l/m 2,1 km/h (1 Bft) W-SW 247 -0,3 C 4,7 C 2,5 km/h (1 Bft)
17.02.2020 05:14 12,4 C 4,7 C 2,8 C 0,0 C 64 % 70 % 1018,1 hPa 0,0 l/m 1,9 km/h (1 Bft) W-SW 247 -0,3 C 4,7 C 3,7 km/h (1 Bft)
17.02.2020 05:12 12,4 C 4,8 C 2,9 C 0,0 C 64 % 70 % 1018,1 hPa 0,0 l/m 1,6 km/h (1 Bft) W-SW 247 -0,2 C 4,8 C 3,7 km/h (1 Bft)
17.02.2020 05:10 12,4 C 4,8 C 2,9 C 0,0 C 64 % 70 % 1018,1 hPa 0,0 l/m 1,1 km/h (1 Bft) W-SW 247 -0,2 C 4,8 C 3,7 km/h (1 Bft)
17.02.2020 05:08 12,4 C 4,9 C 3,0 C 0,0 C 64 % 69 % 1017,8 hPa 0,0 l/m 0,8 km/h (0 Bft) W-SW 247 -0,3 C 4,9 C 2,9 km/h (1 Bft)
17.02.2020 05:06 12,4 C 4,9 C 3,1 C 0,0 C 64 % 69 % 1017,8 hPa 0,0 l/m 0,5 km/h (0 Bft) W-SW 247 -0,3 C 4,9 C 2,9 km/h (1 Bft)
17.02.2020 05:04 12,4 C 4,9 C 3,2 C 0,0 C 64 % 69 % 1017,8 hPa 0,0 l/m 0,2 km/h (0 Bft) W-SW 247 -0,3 C 4,9 C 0,0 km/h (0 Bft)
17.02.2020 05:02 12,4 C 4,9 C 3,2 C 0,0 C 64 % 69 % 1017,8 hPa 0,0 l/m 0,3 km/h (0 Bft) W-SW 247 -0,3 C 4,9 C 0,0 km/h (0 Bft)
17.02.2020 05:00 12,4 C 5,1 C 3,4 C 0,0 C 64 % 69 % 1017,8 hPa 0,0 l/m 0,3 km/h (0 Bft) W-SW 247 -0,1 C 5,1 C 0,0 km/h (0 Bft)
17.02.2020 04:58 12,4 C 5,1 C 3,5 C 0,0 C 64 % 69 % 1017,8 hPa 0,0 l/m 0,5 km/h (0 Bft) W-SW 247 -0,1 C 5,1 C 0,0 km/h (0 Bft)
17.02.2020 04:56 12,4 C 5,1 C 3,6 C 0,0 C 64 % 69 % 1017,8 hPa 0,0 l/m 1,3 km/h (1 Bft) W-SW 247 -0,1 C 5,1 C 0,0 km/h (0 Bft)
17.02.2020 04:54 12,4 C 5,1 C 3,6 C 0,0 C 64 % 69 % 1017,8 hPa 0,0 l/m 1,8 km/h (1 Bft) W-SW 247 -0,1 C 5,1 C 2,1 km/h (1 Bft)
17.02.2020 04:52 12,4 C 4,9 C 3,6 C 0,0 C 64 % 69 % 1017,8 hPa 0,0 l/m 1,9 km/h (1 Bft) W-SW 247 -0,3 C 4,9 C 2,3 km/h (1 Bft)
17.02.2020 04:50 12,4 C 4,9 C 3,5 C 0,0 C 64 % 69 % 1017,8 hPa 0,0 l/m 2,1 km/h (1 Bft) W-SW 247 -0,3 C 4,9 C 2,9 km/h (1 Bft)
17.02.2020 04:48 12,4 C 4,9 C 3,6 C 0,0 C 64 % 69 % 1017,6 hPa 0,0 l/m 2,3 km/h (1 Bft) W-SW 247 -0,3 C 4,9 C 6,6 km/h (2 Bft)
17.02.2020 04:46 12,4 C 4,9 C 3,6 C 0,0 C 64 % 69 % 1017,6 hPa 0,0 l/m 1,9 km/h (1 Bft) SW 225 -0,3 C 4,9 C 6,6 km/h (2 Bft)
17.02.2020 04:44 12,4 C 4,9 C 3,6 C 0,0 C 64 % 69 % 1017,6 hPa 0,0 l/m 1,3 km/h (1 Bft) NW 315 -0,3 C 4,9 C 3,9 km/h (1 Bft)
17.02.2020 04:42 12,4 C 5,1 C 3,6 C 0,0 C 64 % 68 % 1017,6 hPa 0,0 l/m 0,8 km/h (0 Bft) NW 315 -0,3 C 5,1 C 2,9 km/h (1 Bft)
17.02.2020 04:40 12,4 C 5,2 C 3,6 C 0,0 C 64 % 68 % 1017,6 hPa 0,0 l/m 0,8 km/h (0 Bft) NW 315 -0,2 C 5,2 C 3,1 km/h (1 Bft)
17.02.2020 04:38 12,4 C 5,3 C 3,5 C 0,0 C 64 % 68 % 1017,6 hPa 0,0 l/m 0,6 km/h (0 Bft) NW 315 -0,1 C 5,3 C 3,1 km/h (1 Bft)
17.02.2020 04:36 12,4 C 5,3 C 3,5 C 0,0 C 64 % 68 % 1017,6 hPa 0,0 l/m 0,6 km/h (0 Bft) NW 315 -0,1 C 5,3 C 2,9 km/h (1 Bft)
17.02.2020 04:34 12,4 C 5,4 C 3,5 C 0,0 C 64 % 67 % 1017,6 hPa 0,0 l/m 0,5 km/h (0 Bft) NW 315 -0,2 C 5,4 C 0,0 km/h (0 Bft)
17.02.2020 04:32 12,4 C 5,5 C 3,5 C 0,0 C 64 % 67 % 1017,6 hPa 0,0 l/m 0,5 km/h (0 Bft) NW 315 -0,1 C 5,5 C 4,2 km/h (1 Bft)
17.02.2020 04:30 12,4 C 5,6 C 3,6 C 0,0 C 64 % 67 % 1017,6 hPa 0,0 l/m 0,5 km/h (0 Bft) NW 315 -0,0 C 5,6 C 4,2 km/h (1 Bft)
17.02.2020 04:28 12,4 C 5,6 C 3,6 C 0,0 C 64 % 67 % 1017,3 hPa 0,0 l/m 0,8 km/h (0 Bft) NW 315 -0,0 C 5,6 C 4,1 km/h (1 Bft)
17.02.2020 04:26 12,4 C 5,7 C 3,6 C 0,0 C 64 % 67 % 1017,3 hPa 0,0 l/m 0,6 km/h (0 Bft) NW 315 0,1 C 5,7 C 0,0 km/h (0 Bft)
17.02.2020 04:24 12,4 C 5,7 C 3,6 C 0,0 C 64 % 67 % 1017,3 hPa 0,0 l/m 0,8 km/h (0 Bft) NW 315 0,1 C 5,7 C 0,0 km/h (0 Bft)
17.02.2020 04:22 12,4 C 5,9 C 3,7 C 0,0 C 64 % 67 % 1017,3 hPa 0,0 l/m 0,8 km/h (0 Bft) NW 315 0,3 C 5,9 C 0,0 km/h (0 Bft)
17.02.2020 04:20 12,4 C 6,1 C 4,0 C 0,0 C 64 % 66 % 1017,3 hPa 0,0 l/m 1,1 km/h (1 Bft) NW 315 0,2 C 6,1 C 0,0 km/h (0 Bft)
17.02.2020 04:18 12,4 C 6,1 C 4,1 C 0,0 C 64 % 66 % 1017,3 hPa 0,0 l/m 1,0 km/h (0 Bft) W-NW 292 0,2 C 6,1 C 0,0 km/h (0 Bft)
17.02.2020 04:16 12,4 C 6,1 C 4,0 C 0,0 C 64 % 66 % 1017,3 hPa 0,0 l/m 2,6 km/h (1 Bft) W-NW 292 0,2 C 6,1 C 3,5 km/h (1 Bft)
17.02.2020 04:14 12,3 C 6,1 C 4,1 C 0,0 C 64 % 66 % 1017,3 hPa 0,0 l/m 2,7 km/h (1 Bft) W-NW 292 0,2 C 6,1 C 22,6 km/h (4 Bft)
17.02.2020 04:12 12,4 C 6,2 C 4,3 C 0,0 C 64 % 66 % 1017,3 hPa 0,0 l/m 3,4 km/h (1 Bft) W-NW 292 0,3 C 6,2 C 4,2 km/h (1 Bft)
17.02.2020 04:10 12,4 C 6,2 C 4,6 C 0,0 C 64 % 66 % 1017,3 hPa 0,0 l/m 3,7 km/h (1 Bft) S-SO 157 0,3 C 6,2 C 4,8 km/h (1 Bft)
17.02.2020 04:08 12,4 C 6,1 C 4,7 C 0,0 C 64 % 67 % 1017,2 hPa 0,0 l/m 3,4 km/h (1 Bft) SO 135 0,4 C 6,1 C 15,4 km/h (3 Bft)
17.02.2020 04:06 12,4 C 5,6 C 4,4 C 0,0 C 64 % 69 % 1017,2 hPa 0,0 l/m 3,2 km/h (1 Bft) SW 225 0,4 C 5,6 C 15,4 km/h (3 Bft)
17.02.2020 04:04 12,4 C 5,5 C 3,7 C 0,0 C 64 % 69 % 1017,2 hPa 0,0 l/m 1,9 km/h (1 Bft) SW 225 0,3 C 5,5 C 4,4 km/h (1 Bft)
17.02.2020 04:02 12,4 C 5,6 C 3,5 C 0,0 C 64 % 69 % 1017,2 hPa 0,0 l/m 1,9 km/h (1 Bft) S-SO 157 0,4 C 5,6 C 5,0 km/h (1 Bft)
17.02.2020 04:00 12,4 C 5,6 C 3,7 C 0,0 C 64 % 69 % 1017,2 hPa 0,0 l/m 1,9 km/h (1 Bft) W-SW 247 0,4 C 5,6 C 5,0 km/h (1 Bft)
17.02.2020 03:58 12,3 C 5,6 C 3,6 C 0,0 C 64 % 69 % 1017,2 hPa 0,0 l/m 2,3 km/h (1 Bft) W-NW 292 0,4 C 5,6 C 2,7 km/h (1 Bft)
17.02.2020 03:56 12,4 C 5,6 C 3,6 C 0,0 C 64 % 69 % 1017,2 hPa 0,0 l/m 2,9 km/h (1 Bft) W-NW 292 0,4 C 5,6 C 2,7 km/h (1 Bft)
17.02.2020 03:54 12,3 C 5,5 C 3,5 C 0,0 C 64 % 69 % 1017,2 hPa 0,0 l/m 3,2 km/h (1 Bft) W-NW 292 0,3 C 5,5 C 3,5 km/h (1 Bft)
17.02.2020 03:52 12,4 C 5,5 C 3,5 C 0,0 C 64 % 69 % 1017,2 hPa 0,0 l/m 3,4 km/h (1 Bft) W-NW 292 0,3 C 5,5 C 4,1 km/h (1 Bft)
17.02.2020 03:50 12,4 C 5,5 C 3,5 C 0,0 C 64 % 69 % 1017,2 hPa 0,0 l/m 3,5 km/h (1 Bft) W-NW 292 0,3 C 5,5 C 4,4 km/h (1 Bft)
17.02.2020 03:48 12,4 C 5,6 C 3,6 C 0,0 C 64 % 69 % 1017,0 hPa 0,0 l/m 3,5 km/h (1 Bft) W-NW 292 0,4 C 5,6 C 5,4 km/h (1 Bft)
17.02.2020 03:46 12,4 C 5,6 C 3,7 C 0,0 C 64 % 69 % 1017,0 hPa 0,0 l/m 2,9 km/h (1 Bft) NW 315 0,4 C 5,6 C 5,4 km/h (1 Bft)
17.02.2020 03:44 12,3 C 5,6 C 3,7 C 0,0 C 64 % 69 % 1017,0 hPa 0,0 l/m 2,6 km/h (1 Bft) NW 315 0,4 C 5,6 C 3,9 km/h (1 Bft)
17.02.2020 03:42 12,3 C 5,6 C 3,7 C 0,0 C 64 % 69 % 1017,0 hPa 0,0 l/m 2,6 km/h (1 Bft) NW 315 0,4 C 5,6 C 5,2 km/h (1 Bft)
17.02.2020 03:40 12,3 C 5,7 C 3,7 C 0,0 C 64 % 69 % 1017,0 hPa 0,0 l/m 2,4 km/h (1 Bft) NW 315 0,5 C 5,7 C 5,2 km/h (1 Bft)
17.02.2020 03:38 12,3 C 5,7 C 3,7 C 0,0 C 64 % 69 % 1017,0 hPa 0,0 l/m 1,9 km/h (1 Bft) NW 315 0,5 C 5,7 C 3,9 km/h (1 Bft)
17.02.2020 03:36 12,4 C 5,6 C 3,6 C 0,0 C 64 % 69 % 1017,0 hPa 0,0 l/m 2,1 km/h (1 Bft) NW 315 0,4 C 5,6 C 3,3 km/h (1 Bft)
17.02.2020 03:34 12,4 C 5,6 C 3,5 C 0,0 C 64 % 69 % 1017,0 hPa 0,0 l/m 1,9 km/h (1 Bft) NW 315 0,4 C 5,6 C 3,3 km/h (1 Bft)
17.02.2020 03:32 12,4 C 5,7 C 3,6 C 0,0 C 64 % 69 % 1017,0 hPa 0,0 l/m 2,1 km/h (1 Bft) W-NW 292 0,5 C 5,7 C 4,2 km/h (1 Bft)
17.02.2020 03:30 12,3 C 5,7 C 3,6 C 0,0 C 64 % 69 % 1017,0 hPa 0,0 l/m 2,1 km/h (1 Bft) W-NW 292 0,5 C 5,7 C 4,2 km/h (1 Bft)
17.02.2020 03:28 12,3 C 5,7 C 3,5 C 0,0 C 64 % 69 % 1016,9 hPa 0,0 l/m 1,9 km/h (1 Bft) W-NW 292 0,5 C 5,7 C 4,2 km/h (1 Bft)
17.02.2020 03:26 12,3 C 5,7 C 3,6 C 0,0 C 64 % 69 % 1016,9 hPa 0,0 l/m 1,8 km/h (1 Bft) S 180 0,5 C 5,7 C 4,2 km/h (1 Bft)
17.02.2020 03:24 12,3 C 5,7 C 3,7 C 0,0 C 64 % 69 % 1016,9 hPa 0,0 l/m 2,4 km/h (1 Bft) S 180 0,5 C 5,7 C 11,2 km/h (2 Bft)
17.02.2020 03:22 12,3 C 5,7 C 3,8 C 0,0 C 64 % 69 % 1016,9 hPa 0,0 l/m 2,7 km/h (1 Bft) S 180 0,5 C 5,7 C 4,8 km/h (1 Bft)
17.02.2020 03:20 12,3 C 5,7 C 3,8 C 0,0 C 64 % 69 % 1016,9 hPa 0,0 l/m 2,6 km/h (1 Bft) S 180 0,5 C 5,7 C 2,7 km/h (1 Bft)
17.02.2020 03:18 12,3 C 5,7 C 3,8 C 0,0 C 64 % 69 % 1016,9 hPa 0,0 l/m 2,3 km/h (1 Bft) W-SW 247 0,5 C 5,7 C 6,4 km/h (2 Bft)
17.02.2020 03:16 12,3 C 5,7 C 3,8 C 0,0 C 64 % 69 % 1016,9 hPa 0,0 l/m 3,1 km/h (1 Bft) W-SW 247 0,5 C 5,7 C 6,4 km/h (2 Bft)
17.02.2020 03:14 12,3 C 5,7 C 3,8 C 0,0 C 64 % 69 % 1016,9 hPa 0,0 l/m 2,7 km/h (1 Bft) SW 225 0,5 C 5,7 C 6,0 km/h (2 Bft)
17.02.2020 03:12 12,3 C 5,8 C 4,0 C 0,0 C 64 % 70 % 1016,9 hPa 0,0 l/m 3,4 km/h (1 Bft) SW 225 0,8 C 5,8 C 6,0 km/h (2 Bft)
17.02.2020 03:10 12,3 C 5,8 C 4,2 C 0,0 C 64 % 70 % 1016,9 hPa 0,0 l/m 3,5 km/h (1 Bft) SW 225 0,8 C 5,8 C 4,6 km/h (1 Bft)
17.02.2020 03:08 12,3 C 5,8 C 4,3 C 0,0 C 64 % 70 % 1016,9 hPa 0,0 l/m 3,7 km/h (1 Bft) SW 225 0,8 C 5,8 C 4,4 km/h (1 Bft)
17.02.2020 03:06 12,3 C 5,7 C 4,3 C 0,0 C 64 % 70 % 1016,9 hPa 0,0 l/m 3,7 km/h (1 Bft) O-SO 112 0,7 C 5,7 C 6,6 km/h (2 Bft)
17.02.2020 03:04 12,3 C 5,6 C 3,8 C 0,0 C 64 % 70 % 1016,9 hPa 0,0 l/m 3,7 km/h (1 Bft) O-SO 112 0,6 C 5,6 C 6,6 km/h (2 Bft)
17.02.2020 03:02 12,3 C 5,4 C 3,8 C 0,0 C 64 % 70 % 1016,9 hPa 0,0 l/m 3,1 km/h (1 Bft) S-SO 157 0,4 C 5,4 C 5,4 km/h (1 Bft)
17.02.2020 03:00 12,3 C 5,3 C 3,8 C 0,0 C 64 % 70 % 1016,9 hPa 0,0 l/m 2,9 km/h (1 Bft) S-SO 157 0,3 C 5,3 C 4,8 km/h (1 Bft)
17.02.2020 02:58 12,3 C 5,3 C 3,8 C 0,0 C 64 % 70 % 1016,9 hPa 0,0 l/m 2,7 km/h (1 Bft) S-SO 157 0,3 C 5,3 C 4,1 km/h (1 Bft)
17.02.2020 02:56 12,3 C 5,3 C 3,7 C 0,0 C 64 % 71 % 1016,9 hPa 0,0 l/m 3,1 km/h (1 Bft) S-SO 157 0,5 C 5,3 C 4,1 km/h (1 Bft)
17.02.2020 02:54 12,3 C 5,2 C 3,6 C 0,0 C 64 % 71 % 1016,9 hPa 0,0 l/m 3,1 km/h (1 Bft) S-SO 157 0,4 C 5,2 C 3,7 km/h (1 Bft)
17.02.2020 02:52 12,3 C 5,2 C 3,7 C 0,0 C 64 % 71 % 1016,9 hPa 0,0 l/m 3,2 km/h (1 Bft) S-SO 157 0,4 C 5,2 C 3,7 km/h (1 Bft)
17.02.2020 02:50 12,3 C 5,2 C 3,7 C 0,0 C 64 % 71 % 1016,9 hPa 0,0 l/m 3,9 km/h (1 Bft) S-SO 157 0,4 C 5,2 C 4,6 km/h (1 Bft)
17.02.2020 02:48 12,3 C 5,2 C 3,7 C 0,0 C 64 % 71 % 1016,8 hPa 0,0 l/m 4,3 km/h (1 Bft) S-SO 157 0,4 C 5,2 C 6,0 km/h (2 Bft)
17.02.2020 02:46 12,3 C 5,2 C 3,6 C 0,0 C 64 % 71 % 1016,8 hPa 0,0 l/m 4,7 km/h (1 Bft) SO 135 0,4 C 5,2 C 6,0 km/h (2 Bft)
17.02.2020 02:44 12,3 C 5,2 C 3,6 C 0,0 C 64 % 71 % 1016,8 hPa 0,0 l/m 4,5 km/h (1 Bft) S-SO 157 0,4 C 5,2 C 4,1 km/h (1 Bft)
17.02.2020 02:42 12,3 C 5,1 C 3,7 C 0,0 C 64 % 71 % 1016,8 hPa 0,0 l/m 4,7 km/h (1 Bft) S-SO 157 0,3 C 5,1 C 7,5 km/h (2 Bft)
17.02.2020 02:40 12,3 C 5,1 C 3,7 C 0,0 C 64 % 71 % 1016,8 hPa 0,0 l/m 4,7 km/h (1 Bft) SO 135 0,3 C 5,1 C 7,5 km/h (2 Bft)
17.02.2020 02:38 12,3 C 5,1 C 3,7 C 0,0 C 64 % 71 % 1016,8 hPa 0,0 l/m 4,5 km/h (1 Bft) S-SO 157 0,3 C 5,1 C 7,5 km/h (2 Bft)
17.02.2020 02:36 12,3 C 5,2 C 3,6 C 0,0 C 64 % 71 % 1016,8 hPa 0,0 l/m 4,3 km/h (1 Bft) S-SO 157 0,4 C 5,2 C 7,5 km/h (2 Bft)
17.02.2020 02:34 12,3 C 5,2 C 3,7 C 0,0 C 64 % 71 % 1016,8 hPa 0,0 l/m 3,9 km/h (1 Bft) S-SO 157 0,4 C 5,2 C 5,4 km/h (1 Bft)
17.02.2020 02:32 12,3 C 5,2 C 3,7 C 0,0 C 64 % 71 % 1016,8 hPa 0,0 l/m 4,0 km/h (1 Bft) S-SO 157 0,4 C 5,2 C 5,4 km/h (1 Bft)
17.02.2020 02:30 12,3 C 5,2 C 3,7 C 0,0 C 64 % 71 % 1016,8 hPa 0,0 l/m 3,5 km/h (1 Bft) SO 135 0,4 C 5,2 C 5,8 km/h (2 Bft)
17.02.2020 02:28 12,3 C 5,1 C 3,7 C 0,0 C 64 % 71 % 1017,0 hPa 0,0 l/m 3,7 km/h (1 Bft) O-SO 112 0,3 C 5,1 C 5,8 km/h (2 Bft)
17.02.2020 02:26 12,3 C 5,1 C 3,7 C 0,0 C 64 % 71 % 1017,0 hPa 0,0 l/m 3,4 km/h (1 Bft) O-SO 112 0,3 C 5,1 C 5,4 km/h (1 Bft)
17.02.2020 02:24 12,3 C 5,1 C 3,7 C 0,0 C 64 % 71 % 1017,0 hPa 0,0 l/m 3,4 km/h (1 Bft) O-SO 112 0,3 C 5,1 C 5,8 km/h (2 Bft)
17.02.2020 02:22 12,3 C 5,1 C 3,7 C 0,0 C 64 % 72 % 1017,0 hPa 0,0 l/m 4,2 km/h (1 Bft) O-SO 112 0,5 C 5,1 C 5,8 km/h (2 Bft)
17.02.2020 02:20 12,3 C 5,1 C 3,8 C 0,0 C 64 % 72 % 1017,0 hPa 0,0 l/m 4,5 km/h (1 Bft) S-SO 157 0,5 C 5,1 C 7,5 km/h (2 Bft)
17.02.2020 02:18 12,3 C 4,9 C 3,8 C 0,0 C 64 % 72 % 1017,0 hPa 0,0 l/m 4,7 km/h (1 Bft) O-SO 112 0,3 C 4,9 C 7,5 km/h (2 Bft)
17.02.2020 02:16 12,3 C 5,0 C 4,1 C 0,0 C 64 % 72 % 1017,0 hPa 0,0 l/m 3,7 km/h (1 Bft) O-SO 112 0,4 C 5,0 C 3,9 km/h (1 Bft)
17.02.2020 02:14 12,3 C 4,9 C 4,1 C 0,0 C 64 % 72 % 1017,0 hPa 0,0 l/m 3,7 km/h (1 Bft) O-SO 112 0,3 C 4,9 C 8,1 km/h (2 Bft)
17.02.2020 02:12 12,5 C 4,7 C 3,8 C 0,0 C 64 % 72 % 1017,0 hPa 0,0 l/m 3,4 km/h (1 Bft) O 90 0,1 C 4,7 C 8,1 km/h (2 Bft)
17.02.2020 02:10 12,3 C 4,4 C 3,3 C 0,0 C 64 % 72 % 1017,0 hPa 0,0 l/m 2,4 km/h (1 Bft) O 90 -0,2 C 4,4 C 7,7 km/h (2 Bft)
17.02.2020 02:08 12,3 C 4,1 C 3,2 C 0,0 C 64 % 72 % 1017,2 hPa 0,0 l/m 2,4 km/h (1 Bft) O-SO 112 -0,5 C 4,1 C 5,6 km/h (1 Bft)
17.02.2020 02:06 12,3 C 4,0 C 3,2 C 0,0 C 64 % 72 % 1017,2 hPa 0,0 l/m 2,9 km/h (1 Bft) O-SO 112 -0,6 C 4,0 C 5,2 km/h (1 Bft)
17.02.2020 02:04 12,3 C 3,9 C 3,0 C 0,0 C 64 % 73 % 1017,2 hPa 0,0 l/m 3,2 km/h (1 Bft) O-SO 112 -0,5 C 3,9 C 5,8 km/h (2 Bft)
17.02.2020 02:02 12,3 C 3,8 C 2,9 C 0,0 C 64 % 73 % 1017,2 hPa 0,0 l/m 3,2 km/h (1 Bft) SO 135 -0,6 C 3,8 C 5,8 km/h (2 Bft)
17.02.2020 02:00 12,3 C 3,8 C 2,8 C 0,0 C 64 % 73 % 1017,2 hPa 0,0 l/m 3,1 km/h (1 Bft) S-SO 157 -0,6 C 3,8 C 6,2 km/h (2 Bft)
17.02.2020 01:58 12,5 C 3,6 C 2,8 C 0,0 C 64 % 73 % 1017,2 hPa 0,0 l/m 3,2 km/h (1 Bft) O-SO 112 -0,8 C 3,6 C 6,2 km/h (2 Bft)
17.02.2020 01:56 12,3 C 3,5 C 2,7 C 0,0 C 64 % 73 % 1017,2 hPa 0,0 l/m 3,1 km/h (1 Bft) SO 135 -0,9 C 3,5 C 6,0 km/h (2 Bft)
17.02.2020 01:54 12,3 C 3,5 C 2,6 C 0,0 C 64 % 73 % 1017,2 hPa 0,0 l/m 2,9 km/h (1 Bft) SO 135 -0,9 C 3,5 C 4,4 km/h (1 Bft)
17.02.2020 01:52 12,5 C 3,5 C 2,6 C 0,0 C 64 % 73 % 1017,2 hPa 0,0 l/m 2,9 km/h (1 Bft) O-SO 112 -0,9 C 3,5 C 3,3 km/h (1 Bft)
17.02.2020 01:50 12,5 C 3,4 C 2,6 C 0,0 C 64 % 73 % 1017,2 hPa 0,0 l/m 3,1 km/h (1 Bft) O-SO 112 -1,0 C 3,4 C 6,0 km/h (2 Bft)
17.02.2020 01:48 12,5 C 3,3 C 2,6 C 0,0 C 64 % 73 % 1017,4 hPa 0,0 l/m 3,1 km/h (1 Bft) O-SO 112 -1,1 C 3,3 C 6,0 km/h (2 Bft)
17.02.2020 01:46 12,5 C 3,3 C 2,4 C 0,0 C 64 % 73 % 1017,4 hPa 0,0 l/m 2,6 km/h (1 Bft) S-SO 157 -1,1 C 3,3 C 3,5 km/h (1 Bft)
17.02.2020 01:44 12,5 C 3,2 C 2,4 C 0,0 C 64 % 73 % 1017,4 hPa 0,0 l/m 2,4 km/h (1 Bft) S-SO 157 -1,2 C 3,2 C 7,3 km/h (2 Bft)
17.02.2020 01:42 12,4 C 3,1 C 2,2 C 0,0 C 64 % 72 % 1017,4 hPa 0,0 l/m 2,1 km/h (1 Bft) S-SO 157 -1,4 C 3,1 C 7,3 km/h (2 Bft)
17.02.2020 01:40 12,5 C 2,9 C 2,0 C 0,0 C 64 % 73 % 1017,4 hPa 0,0 l/m 2,4 km/h (1 Bft) O-SO 112 -1,5 C 2,9 C 4,6 km/h (1 Bft)
17.02.2020 01:38 12,5 C 2,9 C 2,1 C 0,0 C 64 % 73 % 1017,4 hPa 0,0 l/m 2,9 km/h (1 Bft) O-SO 112 -1,5 C 2,9 C 4,6 km/h (1 Bft)
17.02.2020 01:36 12,5 C 2,9 C 2,0 C 0,0 C 64 % 73 % 1017,4 hPa 0,0 l/m 2,6 km/h (1 Bft) W 270 -1,5 C 2,9 C 3,9 km/h (1 Bft)
17.02.2020 01:34 12,5 C 2,9 C 1,9 C 0,0 C 64 % 72 % 1017,4 hPa 0,0 l/m 2,6 km/h (1 Bft) W 270 -1,6 C 2,9 C 10,2 km/h (2 Bft)
17.02.2020 01:32 12,5 C 2,9 C 1,9 C 0,0 C 64 % 72 % 1017,4 hPa 0,0 l/m 2,3 km/h (1 Bft) SO 135 -1,6 C 2,9 C 7,7 km/h (2 Bft)
17.02.2020 01:30 12,5 C 2,9 C 2,0 C 0,0 C 65 % 72 % 1017,4 hPa 0,0 l/m 2,1 km/h (1 Bft) O 90 -1,6 C 2,9 C 7,7 km/h (2 Bft)
17.02.2020 01:28 12,5 C 2,9 C 1,4 C 0,0 C 65 % 72 % 1017,4 hPa 0,0 l/m 1,0 km/h (0 Bft) O-SO 112 -1,6 C 2,9 C 7,5 km/h (2 Bft)
17.02.2020 01:26 12,4 C 2,7 C 1,3 C 0,0 C 65 % 72 % 1017,4 hPa 0,0 l/m 0,6 km/h (0 Bft) O-SO 112 -1,8 C 2,7 C 0,0 km/h (0 Bft)
17.02.2020 01:24 12,5 C 2,6 C 0,9 C 0,0 C 65 % 71 % 1017,4 hPa 0,0 l/m 1,0 km/h (0 Bft) O-SO 112 -2,1 C 2,6 C 0,0 km/h (0 Bft)
17.02.2020 01:22 12,5 C 2,6 C 0,8 C 0,0 C 65 % 71 % 1017,4 hPa 0,0 l/m 1,6 km/h (1 Bft) O-SO 112 -2,1 C 2,6 C 0,0 km/h (0 Bft)
17.02.2020 01:20 12,5 C 2,6 C 0,8 C 0,0 C 65 % 71 % 1017,4 hPa 0,0 l/m 1,8 km/h (1 Bft) O-SO 112 -2,1 C 2,6 C 0,0 km/h (0 Bft)
17.02.2020 01:18 12,5 C 2,7 C 1,0 C 0,0 C 65 % 71 % 1017,4 hPa 0,0 l/m 2,1 km/h (1 Bft) O-SO 112 -2,0 C 2,7 C 3,5 km/h (1 Bft)
17.02.2020 01:16 12,4 C 2,7 C 1,0 C 0,0 C 64 % 71 % 1017,4 hPa 0,0 l/m 2,3 km/h (1 Bft) O-SO 112 -2,0 C 2,7 C 3,5 km/h (1 Bft)
17.02.2020 01:14 12,4 C 2,8 C 1,3 C 0,0 C 64 % 71 % 1017,4 hPa 0,0 l/m 1,9 km/h (1 Bft) O-SO 112 -1,9 C 2,8 C 4,1 km/h (1 Bft)
17.02.2020 01:12 12,4 C 2,8 C 1,4 C 0,0 C 64 % 71 % 1017,4 hPa 0,0 l/m 1,8 km/h (1 Bft) O-SO 112 -1,9 C 2,8 C 4,1 km/h (1 Bft)
17.02.2020 01:10 12,4 C 2,9 C 1,4 C 0,0 C 65 % 71 % 1017,4 hPa 0,0 l/m 1,8 km/h (1 Bft) O-SO 112 -1,8 C 2,9 C 3,7 km/h (1 Bft)
17.02.2020 01:08 12,4 C 3,0 C 1,4 C 0,0 C 65 % 70 % 1017,4 hPa 0,0 l/m 1,8 km/h (1 Bft) O-SO 112 -1,9 C 3,0 C 3,7 km/h (1 Bft)
17.02.2020 01:06 12,4 C 3,0 C 1,4 C 0,0 C 65 % 70 % 1017,4 hPa 0,0 l/m 1,9 km/h (1 Bft) O-SO 112 -1,9 C 3,0 C 2,3 km/h (1 Bft)
17.02.2020 01:04 12,4 C 3,3 C 1,5 C 0,0 C 65 % 69 % 1017,4 hPa 0,0 l/m 2,3 km/h (1 Bft) O-SO 112 -1,8 C 3,3 C 2,5 km/h (1 Bft)
17.02.2020 01:02 12,4 C 3,3 C 1,8 C 0,0 C 64 % 69 % 1017,4 hPa 0,0 l/m 2,6 km/h (1 Bft) O-SO 112 -1,8 C 3,3 C 4,8 km/h (1 Bft)
17.02.2020 01:00 12,4 C 3,4 C 2,3 C 0,0 C 64 % 69 % 1017,4 hPa 0,0 l/m 2,1 km/h (1 Bft) O-SO 112 -1,7 C 3,4 C 4,8 km/h (1 Bft)
17.02.2020 00:58 12,5 C 3,4 C 2,3 C 0,0 C 64 % 69 % 1017,4 hPa 0,0 l/m 1,6 km/h (1 Bft) O-SO 112 -1,7 C 3,4 C 3,7 km/h (1 Bft)
17.02.2020 00:56 12,4 C 3,4 C 2,2 C 0,0 C 65 % 69 % 1017,4 hPa 0,0 l/m 1,3 km/h (1 Bft) SW 225 -1,7 C 3,4 C 3,7 km/h (1 Bft)
17.02.2020 00:54 12,4 C 3,4 C 2,0 C 0,0 C 65 % 69 % 1017,4 hPa 0,0 l/m 0,6 km/h (0 Bft) W-SW 247 -1,7 C 3,4 C 3,9 km/h (1 Bft)
17.02.2020 00:52 12,4 C 3,4 C 2,0 C 0,0 C 65 % 69 % 1017,4 hPa 0,0 l/m 0,6 km/h (0 Bft) W-SW 247 -1,7 C 3,4 C 3,9 km/h (1 Bft)
17.02.2020 00:50 12,4 C 3,4 C 2,0 C 0,0 C 65 % 69 % 1017,4 hPa 0,0 l/m 1,1 km/h (1 Bft) W-SW 247 -1,7 C 3,4 C 0,0 km/h (0 Bft)
17.02.2020 00:48 12,4 C 3,4 C 2,0 C 0,0 C 65 % 69 % 1017,2 hPa 0,0 l/m 2,1 km/h (1 Bft) W-SW 247 -1,7 C 3,4 C 2,1 km/h (1 Bft)
17.02.2020 00:46 12,4 C 3,4 C 1,7 C 0,0 C 64 % 69 % 1017,2 hPa 0,0 l/m 2,4 km/h (1 Bft) W-SW 247 -1,7 C 3,4 C 2,1 km/h (1 Bft)
17.02.2020 00:44 12,4 C 3,3 C 1,6 C 0,0 C 65 % 69 % 1017,2 hPa 0,0 l/m 2,6 km/h (1 Bft) W-SW 247 -1,8 C 3,3 C 4,2 km/h (1 Bft)
17.02.2020 00:42 12,4 C 3,4 C 1,4 C 0,0 C 64 % 69 % 1017,2 hPa 0,0 l/m 2,4 km/h (1 Bft) W-SW 247 -1,7 C 3,4 C 5,2 km/h (1 Bft)
17.02.2020 00:40 12,4 C 3,4 C 1,2 C 0,0 C 64 % 69 % 1017,2 hPa 0,0 l/m 2,1 km/h (1 Bft) W-SW 247 -1,7 C 3,4 C 7,3 km/h (2 Bft)
17.02.2020 00:38 12,4 C 3,5 C 1,1 C 0,0 C 64 % 68 % 1017,2 hPa 0,0 l/m 1,4 km/h (1 Bft) W-SW 247 -1,8 C 3,5 C 7,3 km/h (2 Bft)
17.02.2020 00:36 12,4 C 3,6 C 1,2 C 0,0 C 64 % 68 % 1017,2 hPa 0,0 l/m 0,6 km/h (0 Bft) SO 135 -1,7 C 3,6 C 2,7 km/h (1 Bft)
17.02.2020 00:34 12,4 C 3,8 C 0,9 C 0,0 C 64 % 68 % 1017,2 hPa 0,0 l/m 0,5 km/h (0 Bft) SO 135 -1,6 C 3,8 C 0,0 km/h (0 Bft)
17.02.2020 00:32 12,4 C 3,8 C 1,0 C 0,0 C 64 % 68 % 1017,2 hPa 0,0 l/m 0,6 km/h (0 Bft) SO 135 -1,6 C 3,8 C 0,0 km/h (0 Bft)
17.02.2020 00:30 12,4 C 3,8 C 1,4 C 0,0 C 64 % 68 % 1017,2 hPa 0,0 l/m 1,0 km/h (0 Bft) W-SW 247 -1,6 C 3,8 C 2,1 km/h (1 Bft)
17.02.2020 00:28 12,4 C 3,9 C 1,5 C 0,0 C 64 % 68 % 1017,1 hPa 0,0 l/m 1,4 km/h (1 Bft) W-SW 247 -1,5 C 3,9 C 2,1 km/h (1 Bft)
17.02.2020 00:26 12,4 C 3,9 C 1,1 C 0,0 C 64 % 68 % 1017,1 hPa 0,0 l/m 1,9 km/h (1 Bft) W-SW 247 -1,5 C 3,9 C 0,0 km/h (0 Bft)
17.02.2020 00:24 12,4 C 3,9 C 1,0 C 0,0 C 64 % 68 % 1017,1 hPa 0,0 l/m 2,4 km/h (1 Bft) W-SW 247 -1,5 C 3,9 C 1,9 km/h (1 Bft)
17.02.2020 00:22 12,4 C 4,0 C 1,1 C 0,0 C 64 % 68 % 1017,1 hPa 0,0 l/m 3,2 km/h (1 Bft) W-SW 247 -1,4 C 4,0 C 2,3 km/h (1 Bft)
17.02.2020 00:20 12,4 C 4,0 C 1,1 C 0,0 C 64 % 68 % 1017,1 hPa 0,0 l/m 3,7 km/h (1 Bft) W-SW 247 -1,4 C 4,0 C 4,4 km/h (1 Bft)
17.02.2020 00:18 12,4 C 4,0 C 1,0 C 0,0 C 64 % 68 % 1017,1 hPa 0,0 l/m 3,9 km/h (1 Bft) W-SW 247 -1,4 C 4,0 C 4,6 km/h (1 Bft)
17.02.2020 00:16 12,4 C 4,0 C 1,1 C 0,0 C 64 % 68 % 1017,1 hPa 0,0 l/m 3,9 km/h (1 Bft) W-SW 247 -1,4 C 4,0 C 4,6 km/h (1 Bft)
17.02.2020 00:14 12,4 C 4,0 C 1,0 C 0,0 C 64 % 68 % 1017,1 hPa 0,0 l/m 3,9 km/h (1 Bft) W-SW 247 -1,4 C 4,0 C 7,5 km/h (2 Bft)
17.02.2020 00:12 12,4 C 4,0 C 1,0 C 0,0 C 64 % 68 % 1017,1 hPa 0,0 l/m 3,9 km/h (1 Bft) W-SW 247 -1,4 C 4,0 C 6,2 km/h (2 Bft)
17.02.2020 00:10 12,4 C 3,9 C 1,1 C 0,0 C 64 % 68 % 1017,1 hPa 0,0 l/m 3,7 km/h (1 Bft) W-SW 247 -1,5 C 3,9 C 4,8 km/h (1 Bft)
17.02.2020 00:08 12,5 C 4,0 C 1,4 C 0,0 C 64 % 68 % 1016,8 hPa 0,0 l/m 3,9 km/h (1 Bft) W-SW 247 -1,4 C 4,0 C 4,8 km/h (1 Bft)
17.02.2020 00:06 12,4 C 4,0 C 1,5 C 0,0 C 64 % 68 % 1016,8 hPa 0,0 l/m 3,7 km/h (1 Bft) W-SW 247 -1,4 C 4,0 C 4,4 km/h (1 Bft)
17.02.2020 00:04 12,4 C 4,0 C 2,0 C 0,0 C 64 % 68 % 1016,8 hPa 0,0 l/m 3,9 km/h (1 Bft) W-SW 247 -1,4 C 4,0 C 4,2 km/h (1 Bft)
17.02.2020 00:02 12,4 C 4,0 C 2,0 C 0,0 C 64 % 67 % 1016,8 hPa 0,0 l/m 4,5 km/h (1 Bft) W-SW 247 -1,6 C 4,0 C 4,2 km/h (1 Bft)
17.02.2020 00:00 12,4 C 3,9 C 1,8 C 0,0 C 64 % 68 % 1016,8 hPa 0,0 l/m 4,7 km/h (1 Bft) W-SW 247 -1,5 C 3,9 C 6,0 km/h (2 Bft)
_ Min-Zeit 06:56 01:20 06:12 00:00 00:00 04:10 00:00 - 05:28 - - 01:20 01:20 00:26
Minimum _ 12,1 C 2,6 C 0,2 C 0,0 C 64 % 66 % 1016,8 hPa - 0,0 km/h (0 Bft) - - -2,1 C 2,6 C 0,0 km/h (0 Bft)
_ Max-Zeit 00:08 04:10 04:08 00:00 00:44 06:50 06:10 00:00 00:00 - - 03:08 04:10 04:14
Maximum _ 12,5 C 6,2 C 4,7 C 0,0 C 65 % 76 % 1018,6 hPa 0,0 l/m 4,7 km/h
W-SW (1 Bft)
- - 0,8 C 6,2 C 22,6 km/h
W-NW (4 Bft)
Durchschnitt _ 12,3 C 4,2 C 2,3 C 0,0 C 64 % 71 % 1017,5 hPa #0,0 l/m 2,1 km/h (1 Bft) O-SO - -0,6 C 4,2 C 3,7 km/h (1 Bft)